Regional Weather Roundup
Issued by NWS

Home | Current Version | Previous Version | Graphics & Text | Print | Product List | Glossary On
Versions: 1 2 3 4 5 6 7 8 9 10 11 12 13 14 15 16 17 18 19 20 21 22 23 24 25 26 27 28 29 30 31 32 33 34 35 36 37 38 39 40 41 42 43 44 45 46 47 48 49 50
000
ASUS43 KLOT 181006
RWRIL

ILLINOIS REGIONAL WEATHER ROUNDUP
NATIONAL WEATHER SERVICE CHICAGO/ROMEOVILLE IL
500 AM CDT THU SEP 18 2014

NOTE: "FAIR" INDICATES FEW OR NO CLOUDS BELOW 12,000 FEET WITH NO
SIGNIFICANT WEATHER AND/OR OBSTRUCTIONS TO VISIBILITY.

* THESE STATIONS ARE NOT UNDER NWS QUALITY CONTROL. THEY ALSO MAY NOT
  REPORT WEATHER SUCH AS PRECIPITATION OR FOG.

ILZ001-002-007-009-015-016-024-181100-
NORTHWEST ILLINOIS

CITY           SKY/WX    TMP DP  RH WIND       PRES   REMARKS
MOLINE         CLEAR     47  45  93 CALM      30.04S FOG
STERLING*      CLEAR     48  45  87 E3        30.05S
SAVANNA*       CLEAR     47  46  95 CALM      30.05S FOG
$$

ILZ003-004-008-010-011-017-018-181100-
NORTH CENTRAL ILLINOIS

CITY           SKY/WX    TMP DP  RH WIND       PRES   REMARKS
ROCKFORD       CLEAR     49  45  86 CALM      30.08S
FREEPORT*      FOG       43  42  96 CALM      30.08S VSB 1/4
ROCHELLE*      CLEAR     47  45  93 CALM      30.06S
DE KALB*       CLEAR     46  44  95 CALM      30.07S FOG
PERU*          CLEAR     48  47  94 NE3       30.05S
$$

ILZ005-006-012>014-019>023-181100-
NORTHEAST ILLINOIS

CITY           SKY/WX    TMP DP  RH WIND       PRES   REMARKS
CHICAGO-OHARE  CLEAR     53  47  79 CALM      30.06R
CHICAGO-MIDWAY PTCLDY    53  49  86 W3        30.06R
AURORA         CLEAR     44  41  89 CALM      30.07R
LANSING*       CLEAR     47  47  99 CALM      30.06S
JOLIET*        CLEAR     46  45  97 CALM      30.07R FOG
WAUKEGAN       MOCLDY    52  50  93 N6        30.08R FOG
DUPAGE AIRPORT CLEAR     47  44  90 N3        30.06S
KANKAKEE*      CLEAR     47  46  99 NE3       30.06S FOG
WHEELING       CLEAR     51  47  86 VRB3      30.09R
MORRIS*        CLEAR     49  49 100 NE3       30.05S FOG
ROMEOVILLE*    CLEAR     48  48 100 CALM      30.06S
NORTHERLY ISL    N/A     57  47  69 CALM        N/A
$$

LMZ740>746-181100-
SOUTHERN LAKE MICHIGAN

STATION/POSITION SKY/WX   TEMP    WIND        PRES    VSBY  WAVE
                          AIR SEA DIR/SP/G                  HT/PER
                          (F)     (DEG/KT/KT) (MB)    (MI)  (FT/S)
SOUTHERN BUOY              62 65  280/  6/  8 1018.4R         0
WAUKEGAN HARBOR            54     360/  9/ 13   N/A
HARRISON CRIB              58     310/  3/  3   N/A
BURNHAM HARBOR             56     270/  1/  2   N/A
CALUMET HARBOR             54      CALM  /  2 1016.7S
MICHIGAN CITY              54      90/  7/  8   N/A
MICHIGAN CITY 6N           58 64  120/  2/  2   N/A           0
ST. JOSEPH                 60 67   90/  8/ 10   N/A           1
$$

ILZ025>027-034>036-040-047-049-050-058-095>099-181100-
WEST-CENTRAL ILLINOIS

CITY           SKY/WX    TMP DP  RH WIND       PRES   REMARKS
QUINCY         MOCLDY    50  49  96 E3        30.02R FOG
GALESBURG*     PTCLDY    44  43  97 CALM      30.04R FOG
MACOMB*        FOG       43  43 100 CALM      30.05R VSB 1/4
JACKSONVILLE*  PTCLDY    48  48  98 E3        30.05R FOG
PITTSFIELD*    FOG       50  49  94 CALM      30.04R VSB 1/2
$$

ILZ028>032-037-038-041>044-048-051>054-059>061-181100-
CENTRAL ILLINOIS

CITY           SKY/WX    TMP DP  RH WIND       PRES   REMARKS
PONTIAC        CLEAR     48  46  93 E3        30.04S
DECATUR        CLEAR     50  47  89 CALM      30.04R
PEORIA         CLEAR     52  49  89 CALM      30.04R FOG
LACON*         DRZL/FOG  47  47  97 CALM      30.04S VSB<1/4
LINCOLN*       CLEAR     49  48  95 CALM      30.03R FOG
SPRINGFIELD    CLEAR     50  48  93 CALM      30.04R
TAYLORVILLE    CLEAR     48  48 100 CALM      30.03R FOG
$$

ILZ033-039-045-046-055>057-062-063-181100-
EAST-CENTRAL ILLINOIS

CITY           SKY/WX    TMP DP  RH WIND       PRES   REMARKS
CHAMPAIGN      CLEAR     51  50  96 E8        30.04R
DANVILLE*      CLEAR     46  46  99 NE3       30.01S FOG
RANTOUL*       CLEAR     51  48  89 CALM      30.05S
MATTOON        CLEAR     50  48  93 NE6       30.02R
PARIS*         CLEAR     49  49  99 CALM      30.04S FOG
$$

ILZ079-100>102-181100-
SOUTHWEST ILLINOIS

CITY           SKY/WX    TMP DP  RH WIND       PRES   REMARKS
ALTON          CLOUDY    59  56  88 NE3       30.02R
BELLEVILLE     CLOUDY    59  59  99 CALM      30.00R
CAHOKIA*       MOCLDY    61  57  87 NE3       30.00R
SPARTA*        FOG       55  54  97 CALM      30.01R VSB 3/4
$$

ILZ064>066-069>071-074>076-080>082-084>086-088>090-092>094-181100-
SOUTH-CENTRAL ILLINOIS

CITY           SKY/WX    TMP DP  RH WIND       PRES   REMARKS
CARBONDALE     CLOUDY    61  56  83 NE5       29.98R
CAIRO*         CLOUDY    61  59  93 CALM      29.98R FOG
EFFINGHAM*     PTCLDY    52  49  90 CALM      30.03R
MARION         CLOUDY    57  57 100 N3        30.00R FOG
MT. VERNON     CLOUDY    61  52  72 CALM      30.01R
CENTRALIA*     CLOUDY    59  54  85 CALM      30.01R
SALEM*         CLOUDY    62  56  80 CALM      30.02R
METROPOLIS*    CLOUDY    61  61 100 CALM      29.97R
$$

ILZ067-068-072-073-078-083-087-091-181100-
SOUTHEAST ILLINOIS

CITY           SKY/WX    TMP DP  RH WIND       PRES   REMARKS
LAWRENCEVILLE  CLOUDY    56  53  90 NE5       30.02R
FLORA*         CLEAR     58  55  88 CALM      30.02R
FAIRFIELD*     CLOUDY   N/A N/A N/A NE5       30.01R
HARRISBURG*    MOCLDY    60  58  92 CALM      30.01R
ROBINSON*      FOG       49  48  99 CALM      30.03S VSB 1/2
CARMI*         CLOUDY    61  57  85 CALM      30.00R
$$

ABBREVIATIONS USED IN REMARKS
   TC - TEMPERATURE IN CELSIUS
  WCI - WIND CHILL INDEX
   HX - HEAT INDEX
  VSB - VISIBILITY
$$



USA.gov is the U.S. government's official web portal to all federal, state and local government web resources and services.